NIMBUS 2 DEB, 28613

Orbit data source: Space-Track

NIMBUS 2 DEB, 28613 is space debris in SSO originally from a launch on Sun, 15 May 1966 UTC launched from the Air Force Western Test Range (AFWTR). Debris objects in space refer to the collection of defunct objects orbiting the Earth. Examples of debris include non-operational satellites, rocket bodies, and fragments generated from explosions, collisions, or faulty payload assembly.

Loading next visibility...
Identifier
28613, 1966-040AC
Orbit
SSO
Country
Flag of USUS
Related business
Manufacturer
Unknown
Mission
Spacecraft
Bus & Motor
Unknown
Mass
Unknown
Launch date (UTC)
1966-05-15 (59 years ago)
Launch vehicle
Unknown
Launch site
Air Force Western Test Range (AFWTR)
Object type
Payload
Rocket body
Debris
Shape & HBR
Unknown
Radar Cross Section
Small (<0.1 m²)

Expand to show TLE details & history
Last TLE update: 2 days ago

TLE from 2 days ago
0 NIMBUS 2 DEB
1 28613U 66040AC  25257.34101751  .00002725  00000-0  30871-2 0  9996
2 28613 100.3826  32.1606 0048363 174.1022 214.7386 13.70887772605542
Epoch: 2025-09-14T08:11Z
TLE epoch observation values (Epoch: 2025-09-14T08:11:03.912Z)
Latitude
28.06094°
Longitude
-89.74312°
Altitude
1,029.093 km
Speed
7.325 km/s
True Right ascension
01h 46m 20s
True Declination
27° 55' 25"
Sunlit
Object was in full shadow at epoch
Visualization orbit readout
Latitude
Unknown
Longitude
Unknown
Altitude
Unknown
Speed
Unknown
Apparent Right ascension
Unknown
Apparent Declination
Unknown
Sunlit
N/A
Visualization observer readout
Local Sidereal Time
17:08:52
Azimuth
Unknown
Elevation
Unknown
Doppler factor
Unknown
Orbital elements
Apogee altitude
1,029.348 km
Perigee altitude
958.043 km
Semi-major axis
7,371.833 km
Eccentricity
0.00484
Inclination
100.3826°
RAAN
32.1606°
Arg. of periapsis
174.1022°
True anomaly
214.42436°
Mean anomaly
214.7386°
Eccentric anomaly
214.58133°
Mean motion
3.4291 °/min
Orbital period
104.98 mins
BSTAR
0.0030871
Loading maneuver chart data...
Computing Atmospheric mass density...
Loading historical data...
Loading historical data...
Loading historical data...
Loading historical data...
Loading historical data...
Loading historical data...
Loading historical data...

Documentation

Showing up to 5 results
|